Dewpoint
20 18 21 21 23 23 25 25 25 24 26 37 34 34 33 37 35 34 41 48 47 48 53 54 56 56 57 58 59 60 62 62 63 63 64 64 64 66 65 67 67 68 68 69 69 70 71 71 71 72 72 73 74 74 74 74 74 74 75 75 75 74 74 72 73 74 75 76 76 76 75 75 75 73 71 70 70 72 72 66 65 66 67 66 66 66 68
22 19 19 22 26 28 27 27 26 26 26 28 29 33 33 38 42 40 39 44 46 49 55 56 56 59 59 60 60 60 61 62 63 63 63 64 64 64 66 65 66 67 67 68 68 69 70 70 71 71 72 72 73 74 74 75 75 75 75 75 75 75 74 74 74 75 76 77 77 77 76 76 76 76 75 75 74 74 73 74 68 70 69 68 66 65 65
25 22 21 23 25 29 30 27 24 25 27 28 30 29 32 41 43 40 40 44 45 51 57 57 57 59 58 59 59 61 62 62 63 62 63 63 64 64 65 65 66 68 68 68 67 68 68 68 69 70 70 71 71 72 73 73 74 76 76 76 75 75 75 74 74 75 77 77 77 76 76 76 75 75 75 74 74 73 73 73 73 73 70 69 67 65 65
24 22 22 24 26 25 30 30 29 29 28 31 35 40 50 43 44 44 45 43 42 54 59 57 57 58 57 58 59 60 61 62 62 62 62 62 62 63 63 65 66 67 68 68 68 68 69 70 69 70 71 71 71 71 72 72 73 73 73 73 73 73 73 73 73 75 77 76 76 76 75 75 75 75 75 75 74 73 73 73 73 73 71 70 69 68 66
25 24 23 24 25 25 23 25 29 37 33 35 37 37 37 38 40 41 39 40 54 56 58 56 56 57 57 58 60 61 62 62 62 62 63 63 63 63 63 63 64 65 65 66 67 68 69 69 70 71 70 70 70 71 71 72 72 72 72 73 73 73 73 73 73 74 75 76 75 75 75 75 75 75 74 74 74 74 72 72 73 73 72 71 72 70 69
25 23 23 26 25 22 24 35 34 32 29 31 37 37 36 38 45 44 48 52 55 54 55 56 56 58 58 59 61 63 62 62 62 63 63 63 63 63 63 63 64 64 65 66 66 67 67 68 69 70 70 70 70 71 71 71 71 72 72 72 72 72 73 73 73 75 76 75 75 75 74 75 75 74 73 73 73 73 72 73 73 72 72 73 73 72 72
24 25 28 26 24 23 37 34 35 31 31 34 34 34 34 38 43 47 49 49 49 55 56 57 58 58 59 60 61 62 63 63 63 63 63 63 62 62 62 63 64 64 64 65 66 66 66 67 67 68 68 69 70 70 70 71 71 71 72 72 72 73 73 73 73 74 76 75 75 74 74 75 74 73 74 73 72 72 73 72 72 72 72 72 72 72 72
27 27 29 21 22 35 31 32 31 34 31 30 32 31 40 43 44 52 51 48 53 56 56 57 59 60 60 59 60 61 62 63 63 63 63 61 61 61 62 62 64 64 64 64 65 65 66 66 67 67 68 68 69 70 71 71 71 71 72 72 72 72 73 72 72 72 74 73 73 73 74 74 73 73 73 72 72 72 72 72 72 72 72 72 72 71 73
26 26 24 31 31 27 27 28 38 37 35 37 41 40 43 43 44 46 51 52 53 56 57 57 58 60 60 58 58 61 61 61 60 59 60 61 61 61 63 62 63 64 64 64 65 66 66 66 67 67 69 69 69 70 70 70 71 71 71 72 73 73 73 74 74 72 72 71 72 73 74 74 73 73 72 72 72 72 72 73 73 73 74 72 72 72 72
27 28 26 26 25 24 27 34 36 34 34 38 45 43 41 46 47 49 51 52 55 57 58 58 58 61 57 56 57 60 61 61 59 58 60 60 60 62 62 63 63 64 64 64 65 65 65 66 66 67 67 68 68 68 68 68 68 68 69 69 70 71 71 71 73 73 73 73 73 72 71 71 72 73 73 73 72 72 72 72 73 73 73 72 71 72 73
27 30 29 25 25 25 35 44 35 34 33 36 41 38 38 49 50 52 55 56 58 57 56 57 58 56 53 55 57 60 61 60 58 57 60 60 61 62 62 62 63 63 64 65 65 64 65 65 65 66 66 66 66 66 66 66 66 66 66 67 68 69 70 71 71 72 72 72 71 70 70 72 73 73 72 73 73 74 73 72 72 73 73 72 72 71 71
27 27 23 24 25 26 39 41 35 34 35 35 38 32 38 49 49 51 54 55 56 57 58 57 57 55 52 55 56 59 57 57 57 57 58 58 58 57 58 60 61 62 62 61 61 62 63 63 63 63 64 64 64 64 65 65 65 65 65 65 66 67 67 68 68 69 69 70 70 71 70 70 70 70 71 71 71 71 72 72 72 72 71 71 69 69 70
24 29 24 23 30 36 34 39 37 34 36 37 29 30 43 48 50 53 57 56 55 57 58 59 57 58 59 59 57 56 54 51 50 53 54 55 55 54 54 58 61 56 55 57 57 59 59 61 60 60 61 61 62 62 62 62 62 63 64 64 64 64 65 66 66 67 67 67 67 68 69 70 69 69 69 69 70 70 70 71 71 70 69 69 68 67 67
23 24 22 23 26 47 43 43 44 43 38 31 39 44 50 55 52 56 55 55 56 58 59 59 60 60 62 62 63 59 55 52 49 48 49 50 50 51 54 57 57 53 52 55 56 55 56 56 58 59 59 59 59 59 59 59 61 61 62 63 63 63 63 63 64 65 66 67 67 67 67 67 67 67 68 69 70 69 69 68 66 66 65 65 65 64 63
25 28 28 21 21 41 41 44 41 46 37 45 48 51 53 54 55 57 56 56 57 58 57 58 60 58 58 59 61 59 54 53 51 50 49 50 50 52 53 53 52 52 53 53 54 55 53 54 56 59 59 60 59 58 58 58 59 59 59 60 61 61 61 62 63 64 65 66 67 67 67 67 67 67 67 67 67 67 66 66 65 64 64 63 62 62 61
24 25 25 27 44 41 45 40 39 50 50 49 50 51 50 52 54 59 57 58 57 57 59 58 58 58 57 56 58 60 56 53 52 51 51 51 50 49 49 50 51 51 53 53 54 54 55 57 57 57 58 58 58 58 59 60 59 59 59 58 58 59 61 62 63 63 63 63 65 66 66 66 66 65 66 66 66 67 67 66 65 64 63 63 61 60 60
31 30 35 43 45 45 45 44 49 54 54 52 53 52 54 54 54 60 58 58 58 59 58 59 58 57 56 55 57 59 56 51 52 53 50 51 50 49 48 47 51 51 50 52 52 52 53 55 56 58 58 59 59 59 60 61 61 60 60 60 59 58 58 60 62 62 62 62 63 63 64 65 65 65 65 64 64 64 64 64 64 62 62 62 61 60 60
35 37 38 44 42 43 44 42 48 52 52 51 50 51 53 55 58 60 60 59 58 59 59 59 57 54 53 54 53 54 56 55 51 55 49 49 48 45 45 48 49 49 48 49 50 51 52 52 54 59 59 59 61 60 61 62 61 59 57 56 56 57 57 57 57 58 58 58 60 61 59 59 62 63 63 63 63 63 62 62 61 62 62 61 61 60 60
34 30 40 39 38 47 46 46 52 55 55 55 52 53 56 58 59 58 60 60 59 59 60 57 55 51 50 51 51 50 52 57 59 57 53 54 52 50 49 49 50 48 49 49 50 50 50 52 53 52 55 60 61 62 62 59 60 61 60 58 57 55 54 54 59 60 60 59 58 58 58 58 58 59 60 59 60 63 63 60 60 61 61 61 61 60 61
36 36 47 46 47 49 50 47 51 53 54 56 56 58 60 59 59 59 59 59 58 57 56 54 52 52 53 53 55 56 57 55 54 55 55 55 55 56 55 54 53 52 50 50 51 53 54 55 54 53 53 55 57 58 57 57 58 59 58 55 53 54 53 54 55 56 60 61 60 57 56 55 55 55 58 59 57 56 56 55 59 58 59 59 59 59 59
32 40 46 47 48 47 48 46 48 54 56 58 59 58 58 58 57 57 58 58 57 54 51 50 51 51 51 54 57 59 58 54 55 55 55 56 56 57 57 58 58 58 58 57 57 55 54 54 54 56 56 55 56 58 59 60 61 60 59 59 57 53 51 51 52 54 52 54 56 57 54 53 53 53 52 53 53 51 52 52 50 47 53 54 54 54 56
31 36 44 46 40 39 44 46 50 57 58 58 58 58 55 56 57 58 58 58 55 49 49 48 48 50 52 52 52 52 56 58 56 56 56 56 56 56 57 57 58 59 59 59 59 59 59 58 56 55 54 56 57 56 59 60 61 60 59 55 50 49 49 48 49 50 50 50 53 53 52 51 52 52 51 46 49 53 51 51 47 43 46 49 50 53 46
33 46 50 50 44 42 47 51 55 58 56 57 58 58 57 58 58 57 57 57 54 51 50 51 50 50 51 50 51 51 54 56 56 57 58 58 58 58 58 58 59 59 60 60 59 59 59 59 58 58 56 53 56 56 58 58 58 60 59 54 50 48 50 51 53 50 49 49 52 56 53 49 49 51 50 53 43 44 49 49 45 41 40 41 44 46 56
41 41 46 47 44 44 50 54 59 56 57 57 58 58 58 58 59 57 56 56 55 55 55 53 54 55 51 51 52 54 56 56 58 59 59 59 60 60 61 61 61 61 61 61 61 60 60 59 59 59 58 58 58 54 57 58 60 60 58 55 54 53 53 55 57 57 54 56 54 54 55 55 55 55 52 53 55 44 42 45 45 42 41 41 41 42 43
42 43 47 48 47 49 52 57 57 57 58 58 57 58 57 57 58 57 57 57 55 53 54 55 54 55 55 54 56 58 60 60 59 58 59 60 60 60 60 60 60 61 61 60 60 61 60 60 59 59 58 58 58 57 59 57 57 59 59 58 54 54 56 57 57 57 56 58 57 56 54 55 55 55 52 51 49 52 57 42 42 42 42 42 41 41 41
48 48 50 49 49 51 52 56 56 56 56 58 58 58 59 59 59 56 55 57 57 58 56 55 52 55 56 56 56 56 58 60 59 59 60 61 60 60 60 60 60 61 61 61 61 60 60 60 59 58 57 55 58 57 56 58 58 59 57 56 55 56 57 56 57 57 57 58 57 58 57 58 57 57 54 52 50 51 51 54 57 49 42 41 42 44 41
47 51 49 48 48 50 50 54 55 56 55 57 57 58 59 59 59 58 57 58 58 58 57 55 54 56 56 56 57 59 59 58 59 60 58 58 58 59 59 59 59 60 60 59 60 60 59 59 59 59 59 59 59 58 58 59 59 58 58 58 57 56 56 56 56 56 55 58 56 58 58 59 57 55 55 56 56 55 54 54 53 52 52 56 48 40 52
50 48 46 45 48 48 50 55 57 57 57 56 57 56 55 56 58 57 61 60 59 60 58 58 56 57 57 56 57 59 58 58 59 59 58 56 56 55 57 58 58 58 58 59 59 59 59 59 58 58 57 57 57 58 55 56 58 57 56 56 54 53 54 53 53 54 55 57 58 58 58 57 56 55 54 54 53 53 51 54 54 54 54 53 53 48 45
50 47 45 45 47 51 52 55 57 56 57 57 57 57 57 57 57 57 57 58 58 59 59 58 58 58 57 59 60 58 59 58 57 56 56 56 56 55 54 55 55 55 56 56 56 58 58 57 56 55 54 55 54 54 53 55 55 54 55 54 51 50 53 55 55 53 55 56 57 55 55 56 55 55 54 52 55 54 53 53 53 53 53 55 54 54 53
49 49 48 48 49 52 53 53 54 56 55 56 56 55 55 55 56 56 57 58 58 56 57 58 58 59 59 59 59 59 57 57 56 56 54 52 51 53 53 53 52 53 54 55 56 57 57 57 56 55 53 50 48 50 48 51 52 55 57 56 55 54 53 54 57 56 57 58 56 56 55 55 56 54 53 54 55 54 54 53 53 52 54 55 53 55 56
49 51 50 52 52 51 52 54 53 55 56 56 55 56 57 57 56 56 58 59 58 57 59 59 59 60 59 58 58 56 55 54 53 51 51 51 51 51 51 53 52 53 53 54 56 56 56 56 54 53 53 51 48 48 49 47 46 48 52 52 55 59 59 58 58 54 53 52 54 55 53 52 49 50 50 50 51 52 53 53 53 51 53 52 52 52 53
51 51 52 54 52 49 51 54 53 54 54 55 55 56 57 57 56 58 58 58 58 59 59 58 58 57 56 55 55 54 52 51 51 51 50 50 51 52 52 52 54 54 56 56 55 55 56 55 55 54 55 54 50 49 49 50 49 49 48 48 49 57 57 57 53 53 53 54 53 52 52 50 49 49 48 48 49 51 50 51 52 52 52 51 52 53 53
53 52 52 53 52 48 51 53 51 52 52 53 55 56 57 58 57 56 56 58 57 58 58 57 56 55 55 54 52 51 50 51 51 51 51 52 51 53 53 54 55 56 56 54 53 53 54 55 54 54 55 54 53 51 48 49 51 50 50 48 47 49 48 52 54 48 47 50 51 51 52 52 52 53 49 50 51 49 50 49 50 49 50 51 51 52 54
54 53 52 53 51 49 52 52 52 52 52 50 53 57 56 57 58 59 58 59 58 56 57 55 54 52 51 48 49 48 47 48 48 50 51 53 53 53 52 52 53 53 53 54 53 52 52 53 53 54 54 54 53 53 53 52 50 50 53 52 48 47 49 47 49 48 47 48 50 52 53 52 53 51 51 51 51 51 51 51 49 50 50 49 51 56 50
55 54 53 51 49 48 51 51 52 52 50 49 48 51 57 57 58 58 57 57 57 55 53 51 50 48 46 46 46 44 45 48 49 50 53 53 53 54 54 54 54 54 53 53 52 51 53 56 55 54 54 53 54 54 54 53 50 52 53 51 51 48 48 50 47 47 47 47 48 47 49 49 49 52 54 52 51 53 50 50 50 49 49 49 51 54 55
55 54 55 54 54 50 53 53 51 51 50 50 51 50 52 54 56 58 57 54 51 51 50 51 49 47 47 48 47 46 47 45 50 52 52 53 53 53 52 54 54 53 52 52 52 52 52 57 55 53 50 52 52 53 57 54 52 50 52 50 50 48 48 47 47 48 50 49 49 50 49 50 50 50 49 49 48 49 49 49 48 48 48 49 48 49 52
52 54 54 55 54 54 55 54 55 53 52 54 53 53 53 54 53 55 54 52 50 51 51 50 49 49 48 49 48 47 50 50 49 51 52 53 52 52 51 52 52 52 51 49 52 50 50 55 53 51 50 50 51 52 54 54 53 49 50 49 48 49 46 44 46 47 46 50 49 50 50 49 50 48 49 47 46 47 47 47 49 47 46 47 49 49 49
53 54 57 57 56 55 55 55 55 54 53 54 55 54 54 54 55 53 55 53 54 53 52 50 50 50 51 51 51 49 50 51 51 52 53 53 52 51 50 49 48 48 45 51 54 49 53 54 52 50 50 50 50 49 50 52 51 50 48 47 46 46 45 44 45 46 47 47 49 47 47 47 47 47 46 46 47 47 46 47 47 47 48 47 48 48 48
57 58 58 58 56 57 56 56 55 54 54 55 55 55 55 55 55 55 55 54 55 54 52 52 51 51 51 51 51 52 52 51 52 51 51 52 51 50 49 51 53 52 53 51 49 50 54 51 49 50 49 49 50 48 50 50 48 51 50 49 48 47 45 45 44 45 46 48 45 46 47 45 45 44 44 44 47 47 48 48 47 48 47 46 46 47 49
58 57 57 56 56 58 57 57 55 56 55 56 55 55 56 56 55 55 55 55 55 54 53 53 53 51 52 52 52 52 52 52 52 52 52 52 52 51 50 50 51 50 50 43 49 54 52 50 50 48 49 49 49 48 47 49 48 49 46 45 45 45 44 46 45 44 44 44 45 44 44 45 44 44 43 44 43 45 46 47 47 46 46 48 49 49 50
57 56 57 57 55 56 57 57 57 57 58 58 58 58 58 57 57 57 55 56 55 54 55 54 53 52 52 52 52 53 53 52 52 52 53 52 50 50 46 47 49 48 50 51 52 51 50 48 47 47 48 47 49 49 46 46 48 45 44 44 44 44 43 43 42 42 44 43 44 42 42 43 42 42 41 41 44 44 46 47 47 48 48 48 50 49 52
58 59 58 58 60 60 59 59 58 59 59 60 60 60 60 59 58 57 58 57 57 56 56 54 53 54 53 53 52 53 52 53 53 52 52 49 49 47 43 47 50 52 52 52 51 48 51 50 49 47 47 47 48 51 51 49 48 45 42 43 44 45 44 44 46 44 45 44 45 45 45 44 44 45 44 44 43 46 47 48 48 48 48 49 50 50 49
56 58 57 59 59 59 59 59 59 59 58 59 60 60 59 59 58 58 57 57 56 55 54 54 53 53 53 54 54 53 53 53 52 51 50 51 53 53 52 51 51 51 50 50 51 48 45 45 48 49 49 47 46 49 50 47 45 41 42 42 45 42 44 44 44 44 45 44 44 44 44 43 44 45 45 45 46 47 47 48 49 48 48 50 50 48 49
57 57 58 59 58 58 59 60 60 59 58 58 58 58 59 58 58 57 56 55 55 54 55 54 54 53 53 53 52 51 52 50 50 49 47 48 47 51 51 48 50 50 51 48 45 44 41 47 48 49 50 48 47 49 48 46 42 43 44 44 44 44 43 44 43 43 43 43 44 44 43 45 43 44 45 45 47 47 48 48 48 49 49 49 49 49 49
58 59 59 59 60 60 60 59 59 59 58 59 59 58 58 58 57 56 55 55 55 55 54 53 53 52 52 51 51 51 51 49 49 47 45 45 44 46 49 48 47 47 45 47 46 44 46 47 46 48 47 47 48 50 49 46 42 43 45 44 45 44 44 43 43 43 43 44 44 43 43 44 43 43 45 45 46 45 46 46 46 47 47 48 48 49 50
58 59 60 58 59 59 59 59 59 59 58 57 56 56 56 56 55 55 55 55 54 53 53 53 53 53 52 51 53 52 51 49 49 49 47 50 49 48 48 47 47 47 46 50 45 43 47 49 48 45 47 48 48 47 47 43 44 44 46 44 45 44 42 41 43 43 42 42 42 42 44 43 44 44 44 45 45 46 46 46 46 46 46 46 46 46 46
58 58 58 58 58 58 59 58 58 57 56 54 54 54 54 55 54 53 54 54 53 53 54 54 53 53 53 53 52 49 47 45 47 46 48 48 49 48 49 48 47 47 46 46 44 46 46 46 46 46 47 49 50 49 45 43 43 44 45 45 44 42 41 43 43 42 41 43 42 43 43 43 42 42 43 43 43 44 44 44 44 44 44 45 45 45 45
57 57 57 58 58 58 58 57 55 54 54 53 53 53 53 53 53 53 53 53 53 53 53 53 53 53 54 52 51 49 48 46 44 46 46 46 47 45 44 45 44 46 48 46 46 47 47 44 44 48 48 49 48 45 44 43 43 44 43 43 44 41 41 42 41 42 40 41 41 41 40 41 41 41 40 39 41 41 41 41 42 42 42 42 42 42 43
57 57 57 57 57 57 56 54 53 53 52 53 53 52 52 53 53 53 52 53 53 51 51 52 52 51 51 50 50 48 48 48 48 44 46 46 45 45 46 47 46 47 46 45 46 42 45 44 46 47 49 49 47 40 39 41 42 41 40 40 41 40 41 41 41 41 40 39 39 38 39 36 38 37 38 38 37 37 38 41 40 38 39 40 40 41 41
58 57 57 56 56 55 53 52 52 52 53 53 52 52 53 52 50 51 50 50 49 48 49 49 49 49 48 46 47 48 48 48 48 48 48 47 47 48 44 44 44 45 47 47 45 42 44 46 46 47 46 46 41 39 39 37 40 40 39 40 40 40 39 39 43 42 39 40 37 35 37 38 37 38 36 37 35 35 35 36 37 38 41 40 37 37 38
57 56 55 55 54 54 53 53 52 54 52 52 52 52 52 51 49 51 49 48 47 46 47 46 47 46 45 44 45 46 48 48 48 48 47 48 48 46 47 46 44 45 46 44 44 41 40 42 43 42 43 42 40 41 41 40 37 36 40 40 40 40 39 42 38 38 38 35 35 38 36 36 36 36 35 34 35 36 37 36 35 35 32 34 35 35 35
59 59 59 58 59 57 53 52 54 53 53 52 52 51 49 48 49 48 47 50 46 45 45 45 44 45 45 44 45 46 46 47 47 46 47 46 45 43 45 44 43 43 43 43 44 45 42 43 42 41 43 42 39 38 36 37 40 39 39 42 40 40 39 37 38 35 40 39 38 35 38 36 35 35 36 35 35 36 35 35 34 33 34 34 35 36 36